Location: Bremen
(53.0793°N, 8.8017°E)
Time: 11:50:05
(UTC+01:00)

deb Explorer IX - Pass Details

Date: 16 December 2021
Orbit: 544 x 1082 km, 38.8° (Epoch: 14 January)

Event Time Altitude Azimuth Distance (km) Brightness Sun altitude
Rises 06:04:54 0° 222° (SW) 3,755 - -20.7°
Exits shadow 06:05:53 - 218° (SW) 3,463 ? -20.6°
Reaches altitude 10° 06:08:40 10° 204° (SSW) 2,721 ? -20.2°
Maximum altitude 06:12:39 17° 166° (SSE) 2,151 ? -19.6°
Drops below altitude 10° 06:16:21 10° 128° (SE) 2,498 ? -19.0°
Sets 06:19:36 0° 108° (ESE) 3,321 ? -18.6°
